Time_in_sec,Mx,My,Mz
1326903507.67347050,0.35479760,-0.19214089,-0.54964513
1326903507.72548342,0.35535690,-0.19285782,-0.54874152
1326903507.77251101,0.35488331,-0.19250785,-0.54814863
1326903507.82452226,0.35447970,-0.19296676,-0.54866344
1326903507.87366629,0.35412985,-0.19320211,-0.54818404
1326903507.92450166,0.35451812,-0.19063623,-0.54768467
1326903507.97311306,0.35523319,-0.19201605,-0.55086386
1326903508.02493644,0.35486263,-0.19156879,-0.54840451
1326903508.07264876,0.35398871,-0.19308107,-0.54844064
1326903508.12548232,0.35400525,-0.19249976,-0.54807144
1326903508.17264104,0.35574070,-0.19132043,-0.55071747
1326903508.22564077,0.35548687,-0.19213580,-0.55084950
1326903508.27353740,0.35557002,-0.19215159,-0.54935563
1326903508.32456326,0.35514635,-0.19391519,-0.54812485
1326903508.37352180,0.35488063,-0.19309181,-0.54826885
1326903508.42485619,0.35513616,-0.19225408,-0.55037093
1326903508.47262383,0.35515511,-0.19295903,-0.55011678
1326903508.52551794,0.35508874,-0.19074816,-0.54877043
1326903508.57364440,0.35372627,-0.19366102,-0.54869878
1326903508.62466478,0.35501993,-0.19391383,-0.54813159
1326903508.67369413,0.35437933,-0.19248012,-0.55040973
1326903508.72166419,0.35657293,-0.19099182,-0.54931015
1326903508.77353048,0.35487553,-0.19238949,-0.54827398
1326903508.83262372,0.35389000,-0.19308500,-0.54794943
1326903508.87356210,0.35509542,-0.19261970,-0.54888123
1326903508.92573166,0.35586506,-0.19389300,-0.55106533
1326903508.97350526,0.35404417,-0.19257867,-0.55191624
1326903509.02453852,0.35401049,-0.19201051,-0.55018443
1326903509.07354093,0.35509276,-0.19320364,-0.54900146
1326903509.12449741,0.35323551,-0.19190510,-0.54824072
1326903509.17352390,0.35556307,-0.19215028,-0.54948008
1326903509.22456193,0.35602480,-0.19086149,-0.55008495
1326903509.27256823,0.35526597,-0.19298010,-0.54812497
1326903509.32550025,0.35406056,-0.19318894,-0.54942894
1326903509.37352204,0.35589981,-0.19322093,-0.54808950
1326903509.42452860,0.35614941,-0.19156384,-0.55019754
1326903509.47353196,0.35512146,-0.19213440,-0.55062073
1326903509.52553630,0.35465831,-0.19131885,-0.54978234
1326903509.57471633,0.35524505,-0.19391125,-0.54861605
1326903509.62474537,0.35362428,-0.19226162,-0.54809338
1326903509.67269993,0.35571212,-0.19145457,-0.54898053
1326903509.72534132,0.35546535,-0.19133614,-0.54887038
1326903509.77349162,0.35375255,-0.19130549,-0.55020308
1326903509.82463336,0.35425797,-0.19343756,-0.54817557
1326903509.87354803,0.35413751,-0.19425558,-0.54817629
1326903509.92253900,0.35594505,-0.19157037,-0.54933965
1326903509.97253275,0.35523695,-0.18993540,-0.54827172
1326903510.02454686,0.35706124,-0.19146147,-0.54965317
1326903510.07355094,0.35494468,-0.19333777,-0.54714674
1326903510.12548399,0.35452992,-0.19321010,-0.54779029
1326903510.17253017,0.35583514,-0.19098771,-0.54897720
1326903510.22461629,0.35571566,-0.19098768,-0.54885948
1326903510.27352905,0.35467470,-0.19167265,-0.54953080
1326903510.32565117,0.35560369,-0.19297624,-0.54885167
1326903510.37254763,0.35478956,-0.19414921,-0.54776990
1326903510.42461300,0.35510686,-0.19133607,-0.54851717
1326903510.47263122,0.35443911,-0.19214080,-0.54929191
1326903510.52548599,0.35566360,-0.19170181,-0.54761618
1326903510.57361770,0.35610583,-0.19370498,-0.54670990
1326903510.62463546,0.35410395,-0.19249584,-0.54856265
1326903510.67355227,0.35551471,-0.19146241,-0.54799813
1326903510.72554421,0.35619023,-0.19077604,-0.54709810
1326903510.77224255,0.35486010,-0.19121763,-0.54840708
1326903510.82478762,0.35459226,-0.19322194,-0.54666990
1326903510.87364578,0.35468489,-0.19333376,-0.54728472
1326903510.92554855,0.35376033,-0.19142386,-0.55007774
1326903510.97500682,0.35624030,-0.19169801,-0.54857832
1326903511.02480412,0.35566533,-0.19193593,-0.54761446
1326903511.07351637,0.35368383,-0.19379252,-0.54721081
1326903511.12483501,0.35457075,-0.19216582,-0.54692656
1326903511.17352390,0.35514066,-0.19122559,-0.54789561
1326903511.22522855,0.35581169,-0.19156770,-0.54947090
1326903511.27364969,0.35458463,-0.19191200,-0.54891336
1326903511.32548356,0.35490227,-0.19321281,-0.54789454
1326903511.37364197,0.35509273,-0.19346011,-0.54676569
1326903511.42451215,0.35470146,-0.19249597,-0.54915130
1326903511.47367907,0.35674602,-0.19170339,-0.54855132
1326903511.52471137,0.35603681,-0.19182159,-0.54771954
1326903511.57421613,0.35484171,-0.19275641,-0.54665983
1326903511.62566113,0.35629305,-0.19229250,-0.54770261
1326903511.67446971,0.35408852,-0.19158044,-0.54645991
1326903511.72547913,0.35516483,-0.19169776,-0.54751867
1326903511.77278328,0.35458124,-0.19144379,-0.54891682
1326903511.82466555,0.35605320,-0.19243185,-0.54523224
1326903511.87353516,0.35319296,-0.19297172,-0.54687035
1326903511.92459702,0.35629490,-0.19133502,-0.54981905
1326903511.97354126,0.35463920,-0.19180548,-0.54791832
1326903512.02467990,0.35427549,-0.19203818,-0.54768789
1326903512.07427382,0.35569036,-0.19252515,-0.54723668
1326903512.12550235,0.35503232,-0.19206861,-0.54541332
1326903512.17253470,0.35422102,-0.19146606,-0.54632956
1326903512.22461963,0.35579625,-0.19065233,-0.54736817
1326903512.27361989,0.35426259,-0.19121750,-0.54781836
1326903512.32555079,0.35516554,-0.19300638,-0.54539973
1326903512.37511754,0.35478628,-0.19274588,-0.54765570
1326903512.42552543,0.35646117,-0.19136663,-0.54683131
1326903512.47445321,0.35525152,-0.19099019,-0.54813951
1326903512.52548075,0.35657462,-0.19122593,-0.54930842
1326903512.57250786,0.35589993,-0.19228582,-0.54797184
1326903512.62454343,0.35418004,-0.19344543,-0.54731089
1326903512.67356133,0.35478389,-0.19120315,-0.54977643
1326903512.72552705,0.35517615,-0.19109276,-0.54950809
1326903512.77469134,0.35584888,-0.19192545,-0.54884583
1326903512.82460189,0.35523573,-0.19262367,-0.54862547
1326903512.87531018,0.35382426,-0.19260493,-0.54907322
1326903512.92548275,0.35499698,-0.19075340,-0.54815477
1326903512.97251391,0.35568017,-0.19086404,-0.54948276
1326903513.02512503,0.35626730,-0.19039465,-0.55019939
1326903513.07355309,0.35551021,-0.19274737,-0.54823768
1326903513.12509227,0.35472295,-0.19355209,-0.54889464
1326903513.17350841,0.35447219,-0.19072171,-0.55078930
1326903513.22551918,0.35609299,-0.19237135,-0.55131197
1326903513.27263618,0.35596487,-0.19213590,-0.55132043
1326903513.32562733,0.35527900,-0.19260922,-0.55011261
1326903513.37266445,0.35680220,-0.19250962,-0.54990798
1326903513.42465377,0.35514733,-0.19284067,-0.55024213
1326903513.47500730,0.35611221,-0.19120610,-0.55082256
1326903513.52501202,0.35605082,-0.19063266,-0.54958874
1326903513.57352376,0.35526258,-0.19251189,-0.54812837
1326903513.62451386,0.35513869,-0.19286171,-0.54813260
1326903513.67265868,0.35543072,-0.19132957,-0.54949284
1326903513.72547174,0.35626888,-0.19156386,-0.55031532
1326903513.77264190,0.35542560,-0.19062725,-0.54949796
1326903513.82452798,0.35613006,-0.19366421,-0.55080456
1326903513.87357450,0.35509458,-0.19224618,-0.55111784
1326903513.92516994,0.35586798,-0.19143882,-0.55070990
1326903513.97256279,0.35624385,-0.19097465,-0.55069304
1326903514.02702785,0.35585752,-0.19190441,-0.55095541
1326903514.07349157,0.35607317,-0.19180582,-0.54933119
1326903514.12547469,0.35428229,-0.19271815,-0.54991680
1326903514.17351031,0.35643873,-0.19087210,-0.54944223
1326903514.22614098,0.35514224,-0.19213834,-0.55024731
1326903514.27351737,0.35514942,-0.19026944,-0.54988754
1326903514.32550073,0.35481304,-0.19331275,-0.54951203
1326903514.37352848,0.35540980,-0.19226073,-0.54998392
1326903514.42451668,0.35577875,-0.19179523,-0.55009162
1326903514.47250438,0.35731944,-0.19029626,-0.54939926
1326903514.52550292,0.35711145,-0.19144833,-0.55101579
1326903514.57430124,0.35364434,-0.19095694,-0.54983896
1326903514.62450337,0.35615548,-0.19144811,-0.55007392
1326903514.67352176,0.35691476,-0.19250834,-0.55015016
1326903514.72466516,0.35625857,-0.19109434,-0.55044323
1326903514.77352428,0.35513276,-0.19178587,-0.55037433
1326903514.82498550,0.35535023,-0.19098628,-0.54863077
1326903514.87263012,0.35504693,-0.19261047,-0.54975265
1326903514.92548251,0.35683358,-0.19085643,-0.55140710
1326903514.97261953,0.35606894,-0.19096409,-0.55157125
1326903515.02453375,0.35691065,-0.19073150,-0.55227262
1326903515.07755566,0.35547301,-0.19213316,-0.55109847
1326903515.12554026,0.35598299,-0.19272381,-0.55106717
1326903515.17253280,0.35700497,-0.19133388,-0.55064994
1326903515.22551751,0.35492149,-0.19153461,-0.55187666
1326903515.27511477,0.35594252,-0.19096275,-0.55157799
1326903515.32585502,0.35505217,-0.19212122,-0.55186564
1326903515.37253785,0.35485137,-0.19166085,-0.55088669
1326903515.42453384,0.35743359,-0.19120772,-0.55199319
1326903515.47353005,0.35682580,-0.19073805,-0.55153245
1326903515.52453375,0.35708883,-0.19214538,-0.55150867
1326903515.57750821,0.35511720,-0.19154912,-0.55062503
1326903515.62553215,0.35589218,-0.19191100,-0.55033296
1326903515.67355990,0.35676840,-0.19236362,-0.55276531
1326903515.72551417,0.35495204,-0.18976435,-0.55337667
1326903515.77357602,0.35575628,-0.19130071,-0.55270255
1326903515.82553411,0.35634938,-0.19190715,-0.55117738
1326903515.87350488,0.35470924,-0.19261435,-0.54902595
1326903515.92455769,0.35462806,-0.19070597,-0.55251867
1326903515.97253895,0.35717565,-0.19050272,-0.55201185
1326903516.02551484,0.35521775,-0.19084421,-0.55099690
1326903516.07327199,0.35434043,-0.19188827,-0.55103648
1326903516.12569261,0.35577694,-0.19249623,-0.55021095
1326903516.17250776,0.35554329,-0.19132827,-0.54973507
1326903516.22524858,0.35637465,-0.19062614,-0.55056441
1326903516.27349877,0.35415250,-0.19199212,-0.55216277
1326903516.32476592,0.35553709,-0.19237912,-0.54997635
1326903516.37251043,0.35574737,-0.19319196,-0.55082828
1326903516.42497897,0.35618842,-0.19096412,-0.55168897
1326903516.47312212,0.35630694,-0.19178219,-0.55192518
1326903516.52548671,0.35676512,-0.19121677,-0.55041534
1326903516.57262850,0.35547826,-0.19190037,-0.55097568
1326903516.62462950,0.35573098,-0.19283818,-0.55107981
1326903516.67372322,0.35573038,-0.19085090,-0.55084538
1326903516.72565150,0.35651678,-0.18967266,-0.55242509
1326903516.77352762,0.35614151,-0.19212411,-0.55267632
1326903516.82454014,0.35513008,-0.19236982,-0.55049455
1326903516.87298274,0.35594931,-0.19189917,-0.55157113
1326903516.92651176,0.35676342,-0.19072619,-0.55265284
1326903516.97287583,0.35699621,-0.19177710,-0.55312955
1326903517.02564597,0.35578933,-0.19013807,-0.55196422
1326903517.07350779,0.35429251,-0.19386631,-0.55214226
1326903517.12451029,0.35570934,-0.19271716,-0.55145413
1326903517.17371964,0.35613370,-0.19226220,-0.55056590
1326903517.22553062,0.35589668,-0.19036958,-0.55232918
1326903517.27266264,0.35735655,-0.19107617,-0.55336344
1326903517.32547903,0.35701275,-0.19145225,-0.55052459
1326903517.37251425,0.35562718,-0.19188331,-0.55282950
1326903517.42555237,0.35620570,-0.19117850,-0.55367231
1326903517.47370076,0.35692680,-0.19295551,-0.55225635
1326903517.52575374,0.35484430,-0.19233818,-0.55336457
1326903517.57260323,0.35556567,-0.19198851,-0.55394906
1326903517.62157345,0.35511780,-0.19353640,-0.55085945
1326903517.67251801,0.35451961,-0.19222763,-0.55238974
1326903517.72456121,0.35670459,-0.19050391,-0.55141640
1326903517.77363086,0.35535961,-0.19201739,-0.55085707
1326903517.82163811,0.35523841,-0.19178326,-0.55074108
1326903517.87358069,0.35550937,-0.19237386,-0.55047429
1326903517.92555022,0.35590971,-0.19025515,-0.55208111
1326903517.97461128,0.35641757,-0.19367349,-0.55016863
1326903518.02551031,0.35559094,-0.19096397,-0.55110025
1326903518.07356572,0.35610771,-0.19249104,-0.55106211
1326903518.12838507,0.35750371,-0.19159441,-0.54851168
1326903518.17351270,0.35730547,-0.19122873,-0.54976588
1326903518.22455692,0.35443234,-0.19094792,-0.55153453
1326903518.27356815,0.35601422,-0.19226217,-0.55044812
1326903518.32452822,0.35492840,-0.19179240,-0.54951644
1326903518.37250280,0.35602891,-0.19238186,-0.55019832
1326903518.42477226,0.35554582,-0.19167943,-0.54973251
1326903518.47256279,0.35731396,-0.19239926,-0.54975730
1326903518.52548480,0.35487127,-0.19154775,-0.55051404
1326903518.57558465,0.35625830,-0.19322102,-0.54844272
1326903518.62461209,0.35483566,-0.19261569,-0.54901922
1326903518.67354703,0.35589752,-0.19074309,-0.55009258
1326903518.72554994,0.35711679,-0.19028042,-0.55077541
1326903518.77256417,0.35656598,-0.19099051,-0.54943466
1326903518.82472706,0.35528180,-0.19109017,-0.54987478
1326903518.87320232,0.35736150,-0.19322655,-0.54900438
1326903518.92451525,0.35588962,-0.19155984,-0.55033553
1326903518.97355533,0.35591039,-0.19156379,-0.54996210
1326903519.02569747,0.35619792,-0.19131659,-0.55156189
1326903519.07355762,0.35628089,-0.19252397,-0.54794991
1326903519.12461591,0.35518807,-0.19273151,-0.54949605
1326903519.17353129,0.35472322,-0.19142540,-0.55089515
1326903519.22456026,0.35723969,-0.19074868,-0.55088973
1326903519.27364469,0.35689479,-0.19287790,-0.54828703
1326903519.32550764,0.35403904,-0.19213282,-0.54968560
1326903519.37262917,0.35530332,-0.19214627,-0.54961807
1326903519.42564607,0.35675564,-0.19086429,-0.55054241
1326903519.47351432,0.35650885,-0.19074586,-0.55043226
1326903519.52461791,0.35533130,-0.19002485,-0.55112064
1326903519.57352209,0.35542512,-0.19436768,-0.54996854
1326903519.62454700,0.35599342,-0.19251469,-0.54858583
1326903519.67350698,0.35565501,-0.19095346,-0.55221391
1326903519.72548461,0.35638937,-0.19074585,-0.55031455
1326903519.77351522,0.35505921,-0.19144389,-0.54938775
1326903519.82796192,0.35510078,-0.19145180,-0.54864085
1326903519.87348914,0.35555348,-0.19273292,-0.54972476
1326903519.92361140,0.35530695,-0.19074427,-0.54937941
1326903519.97366309,0.35583335,-0.19143224,-0.55133229
1326903520.02453113,0.35618576,-0.19154806,-0.55180919
1326903520.07270408,0.35540360,-0.19331157,-0.55022520
1326903520.12547135,0.35588425,-0.19272773,-0.55057597
1326903520.17250848,0.35621092,-0.19120218,-0.55131376
1326903520.22573900,0.35690016,-0.19145353,-0.55028242
1326903520.27354980,0.35484359,-0.19154249,-0.55101204
1326903520.32453012,0.35587054,-0.19178998,-0.55070728
1326903520.37350297,0.35518795,-0.19366662,-0.54961371
1326903520.42547345,0.35585243,-0.19120209,-0.55096054
1326903520.47364450,0.35574156,-0.19143748,-0.55071664
1326903520.52551150,0.35525480,-0.19213705,-0.55048954
1326903520.57267165,0.35535339,-0.19332470,-0.54886258
1326903520.62465620,0.35528606,-0.19141896,-0.55210626
1326903520.67367697,0.35699025,-0.19121419,-0.55089980
1326903520.72553205,0.35562900,-0.19143876,-0.55047441
1326903520.77428365,0.35570690,-0.19143090,-0.55133909
1326903520.82466006,0.35616568,-0.19285274,-0.55006361
1326903520.87310958,0.35367352,-0.19281006,-0.55181032
1326903520.92548513,0.35609144,-0.19094568,-0.55343181
1326903520.97349811,0.35581610,-0.19070493,-0.55382049
1326903521.02490020,0.35650790,-0.19156392,-0.55055076
1326903521.07350421,0.35494995,-0.19259204,-0.55149549
1326903521.12458181,0.35476381,-0.19225135,-0.55026668
1326903521.17365050,0.35553977,-0.19153871,-0.55209190
1326903521.22502589,0.35713747,-0.19096303,-0.55275536
1326903521.27355886,0.35582036,-0.19129020,-0.55381620
1326903521.32547927,0.35637185,-0.19214521,-0.55080223
1326903521.37384558,0.35517421,-0.19247241,-0.55198079
1326903521.42447209,0.35536924,-0.19092183,-0.55508393
1326903521.47352815,0.35682398,-0.19118258,-0.55388755
1326903521.52455235,0.35609740,-0.19176506,-0.55342579
1326903521.57354069,0.35652333,-0.19247931,-0.55265349
1326903521.62531757,0.35486594,-0.19245918,-0.55299026
1326903521.67335844,0.35470769,-0.19093220,-0.55338162
1326903521.72551036,0.35644639,-0.19141266,-0.55390608
1326903521.77303171,0.35660565,-0.19212160,-0.55339622
1326903521.82462645,0.35582530,-0.19318409,-0.55169296
1326903521.87349272,0.35524353,-0.19222912,-0.55297172
1326903521.92456031,0.35616243,-0.19093649,-0.55442101
1326903521.97351956,0.35569915,-0.19105606,-0.55370021
1326903522.02499032,0.35455343,-0.19186069,-0.55400395
1326903522.07321477,0.35358796,-0.19150800,-0.55318910
1326903522.12548256,0.35580793,-0.19339189,-0.55429876
1326903522.17318249,0.35707086,-0.19036591,-0.55388004
1326903522.22462654,0.35615623,-0.19198734,-0.55466223
1326903522.27451873,0.35516816,-0.19233169,-0.55434024
1326903522.32462192,0.35658410,-0.19132194,-0.55141717
1326903522.37252641,0.35476032,-0.19246179,-0.55262351
1326903522.42453980,0.35636154,-0.19141921,-0.55316591
1326903522.47252178,0.35502023,-0.19153069,-0.55236793
1326903522.52548099,0.35634488,-0.19293565,-0.55365270
1326903522.57252216,0.35477573,-0.19363365,-0.55249047
1326903522.62462330,0.35484770,-0.19306286,-0.55112535
1326903522.67364883,0.35556665,-0.19117045,-0.55383056
1326903522.72499561,0.35735229,-0.19049092,-0.55336773
1326903522.77351761,0.35591978,-0.19259490,-0.55218846
1326903522.82450271,0.35496029,-0.19280511,-0.55360335
1326903522.87262392,0.35650438,-0.19177435,-0.55290759
1326903522.92550874,0.35652953,-0.19142847,-0.55241221
1326903522.97263432,0.35684815,-0.19165476,-0.55351067
1326903523.02451634,0.35597947,-0.19293424,-0.55342400
1326903523.08027220,0.35600463,-0.19258834,-0.55292863
1326903523.12461877,0.35555959,-0.19236071,-0.55183691
1326903523.17350411,0.35444352,-0.19127804,-0.55364150
1326903523.22483468,0.35763881,-0.19131824,-0.55285025
1326903523.27289557,0.35655543,-0.19213474,-0.55203360
1326903523.32548213,0.35468751,-0.19291551,-0.55398947
1326903523.37261677,0.35514128,-0.19269994,-0.55260158
1326903523.42164278,0.35664383,-0.19140482,-0.55488849
1326903523.47351241,0.35725614,-0.19058953,-0.55510974
1326903523.52164030,0.35528877,-0.19057855,-0.55422187
1326903523.57256293,0.35592487,-0.19329722,-0.55218327
1326903523.62471581,0.35516644,-0.19235404,-0.55210614
1326903523.67267251,0.35556409,-0.19081929,-0.55383313
1326903523.72548342,0.35634428,-0.19094837,-0.55341834
1326903523.77352953,0.35369092,-0.19208933,-0.55367601
1326903523.82462072,0.35625154,-0.19177166,-0.55292112
1326903523.87365603,0.35591015,-0.19317754,-0.55243313
1326903523.92322588,0.35454819,-0.19209349,-0.55412674
1326903523.97253847,0.35563511,-0.19081010,-0.55482233
1326903524.02325726,0.35661694,-0.19177307,-0.55314982
1326903524.07348561,0.35516632,-0.19328915,-0.55222380
1326903524.12550402,0.35560286,-0.19234626,-0.55332404
1326903524.17347717,0.35618833,-0.19164276,-0.55404240
1326903524.22452998,0.35528877,-0.19057855,-0.55422187
1326903524.27357101,0.35418630,-0.19162519,-0.55377692
1326903524.32556272,0.35689470,-0.19330008,-0.55287617
1326903524.37253547,0.35548165,-0.19236858,-0.55097228
1326903524.42451477,0.35403374,-0.19278780,-0.55439758
1326903524.47255492,0.35507214,-0.19175166,-0.55372882
1326903524.52548313,0.35598907,-0.19235161,-0.55317932
1326903524.57350135,0.35535085,-0.19246061,-0.55333668
1326903524.62463307,0.35393769,-0.19220777,-0.55378616
1326903524.67400742,0.35648796,-0.19142056,-0.55315918
1326903524.72451186,0.35513365,-0.19138999,-0.55484504
1326903524.77348733,0.35651046,-0.19140215,-0.55501974
1326903524.82457829,0.35549188,-0.19351676,-0.55319774
1326903524.87251759,0.35578290,-0.19305913,-0.55244070
1326903524.92547131,0.35427552,-0.19126879,-0.55439520
1326903524.97249961,0.35582036,-0.19129020,-0.55381620
1326903525.02449632,0.35611111,-0.19270280,-0.55329448
1326903525.07749939,0.35461846,-0.19128861,-0.55276334
1326903525.12445426,0.35616302,-0.19318022,-0.55241960
1326903525.17349076,0.35704896,-0.19237158,-0.55225384
1326903525.22475886,0.35446870,-0.19093214,-0.55314612
1326903525.27349806,0.35685083,-0.19107080,-0.55339044
1326903525.32549071,0.35556808,-0.19353124,-0.55182838
1326903525.37305140,0.35370988,-0.19279429,-0.55342191
1326903525.42564464,0.35552847,-0.19163077,-0.55457407
1326903525.47352195,0.35657877,-0.19223337,-0.55389333
1326903525.52549863,0.35544971,-0.19126512,-0.55594605
